Track STARLINK-1636 now! 10-day predictions STARLINK-1636 is classified as:
1 46153U 20057AN 21109.25161895 .00000134 00000-0 27919-4 0 9993 2 46153 53.0607 31.7483 0001631 65.7260 294.3899 15.06390648 37898